Погода в Вязовке

Россия / Нижегородская область     56°08′27″N   43°55′29″E
темп.,
°C
ветер,
м/с
пор.,
м/с
влажн.,
%
обл.,
%
осадки,
мм/ч
давл.,
гПа
погр.,
м
9 декабря, чт
чт900:000юв12100100 0.0 102083
03:00−1ююв1397100 0.0 1020106
06:00−1ссв0199100 0.4 102057
09:00−2ссз2398100 1.4 1021142
12:00−4с3597100 0.8 1021220
15:00−5с4796100 1.7 1023321
18:00−8ссз389536 0.5 1025224
21:00−13ссз379623 0.5 1027120
10 декабря, пт
пт1000:00−17ссз239857 0.0 102940
03:00−18ссз239944 0.0 103137
06:00−18ссз229922 0.0 103226
09:00−19с119920 0.0 103411
12:00−12ссв149342 0.0 1035133
15:00−14с119717 0.0 10369
18:00−16св239819 0.0 103745
21:00−17св11975 0.0 103812
11 декабря, сб
сб1100:00−18всв11986 0.0 103910
03:00−18всв22996 0.0 103916
06:00−18всв11997 0.0 104010
09:00−18всв11985 0.0 104120
12:00−12в29905 0.0 1041263
15:00−13в23945 0.0 104132
18:00−14в310905 0.0 1041169
21:00−14вюв311875 0.0 1041178
12 декабря, вс
вс1200:00−13вюв39865 0.0 1041170
03:00−16вюв22955 0.0 104218
06:00−16вюв239412 0.0 104146
09:00−16вюв229516 0.0 104220
12:00−10юв28895 0.0 1041191
15:00−12юв22948 0.0 104111
18:00−15ююв229680 0.0 104115
21:00−14ююв229452 0.0 104028
13 декабря, пн
пн1300:00−15ююв22935 0.0 104012
03:00−15ююв22935 0.0 103917
06:00−14ююв229135 0.0 103829
09:00−13ююв2490100 0.0 103854
12:00−8ююв2786100 0.0 1037164
15:00−9ююв2489100 0.0 103664
18:00−8ююв2788100 0.0 1035113
21:00−7ю21086100 0.0 1034196